[[{"header":{"parameterUnit":"m.s-1","parameterCategory":1,"la1":30.2991,"la2":30.254,"lo1":-89.0895,"lo2":-89.0444,"dy":0.0017,"dx":0.0017,"nx":28,"ny":28,"refTime":"2025-04-08T09:00:00:Z","depth":0,"parameterNumber":2,"parameterNumberName":"U-component_of_WINDS"},"data":[0,0,0,0,0,0,0,0,0,0,0,0,0,0,0,0,0,0,0,0,0,0,0,0,0,0,0,0,0,0,0,0,0,0,0,0,0,0,0,0,0,0,0,0,0,0,0,0,0,0,0,0,0,0,0,0,0,0,1.4233,1.4234,0,1.4304,1.4304,1.4305,1.4331,1.4331,1.4331,1.433,1.4406,1.4408,1.4411,0,0,0,0,0,0,0,0,0,0,0,0,0,1.4125,1.4127,1.4233,1.4234,1.4235,1.4304,1.4305,1.4305,1.4331,1.4331,1.4331,1.433,1.4405,1.4408,1.4411,0,0,0,0,0,0,0,0,0,0,0,0,0,1.4181,1.4127,1.4233,1.4256,1.4259,1.4303,1.4305,1.4306,1.4331,1.4331,1.4331,1.433,1.4405,1.4408,1.4411,1.4439,0,0,1.4421,1.4423,0,0,0,0,0,0,0,0,1.4178,1.4185,1.4252,1.4254,1.4258,1.4308,1.4294,1.4351,1.4331,1.4304,1.433,1.433,1.4374,1.438,1.4394,1.4443,1.4446,1.4422,1.4424,1.4425,1.4426,0,0,0,0,0,0,0,1.4174,1.4182,1.4261,1.4253,1.4256,1.4264,1.4272,1.4305,1.434,1.4306,1.4308,1.4316,1.4376,1.4391,1.4396,1.4447,1.4422,1.4425,1.4427,1.4428,1.4523,1.4524,0,0,0,0,0,0,1.4166,1.4179,1.4259,1.4263,1.4216,1.4266,1.4275,1.4292,1.434,1.4347,1.4316,1.4317,1.4385,1.4392,1.4399,1.4435,1.4425,1.4428,1.443,1.4523,1.4523,1.4524,0,0,0,0,0,0,1.4163,1.4173,1.4256,1.4222,1.4233,1.4268,1.4288,1.4294,1.4309,1.4347,1.4354,1.4325,1.4385,1.4394,1.4429,1.4438,1.443,1.4433,1.4522,1.4523,1.4524,1.4508,0,0,0,0,0,0,1.416,1.4172,1.4182,1.4222,1.4235,1.4284,1.4289,1.4296,1.4314,1.4316,1.4357,1.4364,1.4386,1.4424,1.4432,1.4443,1.4436,1.4521,1.4522,1.4523,1.4508,1.4508,1.4508,0,0,0,0,0,1.4156,1.4175,1.4182,1.4192,1.4248,1.4284,1.4292,1.4315,1.4315,1.4326,1.4351,1.4363,1.4436,1.4427,1.4437,1.4448,1.4521,1.4522,1.4523,1.4507,1.4508,1.4508,0,0,0,0,0,0,1.4137,1.4181,1.4189,1.4221,1.4249,1.4288,1.4303,1.4315,1.4344,1.4344,1.4373,1.4382,1.4415,1.4435,1.4425,1.4478,1.4479,1.4482,1.4464,1.4464,1.4465,1.4459,1.4438,0,0,0,0,0,1.4136,1.4161,1.4198,1.4223,1.4237,1.4267,1.4284,1.43,1.433,1.4342,1.4369,1.4399,1.4429,1.4448,1.4477,1.4511,1.4521,1.4524,1.4524,1.4524,1.4526,1.4546,1.4548,1.4528,1.4528,1.4528,0,0,1.4135,1.4162,1.4176,1.422,1.4243,1.4269,1.4277,1.4304,1.4324,1.4347,1.4381,1.4402,1.4437,1.4471,1.4488,1.4489,1.4534,1.4525,1.4525,1.4528,1.4547,1.4549,1.4551,1.4528,1.4528,1.4528,0,0,1.4147,1.4169,1.4193,1.4215,1.425,1.427,1.4276,1.4314,1.4329,1.4363,1.438,1.4405,1.4456,1.448,1.4499,1.452,1.4532,1.4529,1.4531,1.4549,1.4551,1.4553,1.456,1.4563,1.4531,1.4531,1.4531,0,1.4142,1.418,1.4204,1.423,1.4249,1.4269,1.4294,1.4315,1.4358,1.4371,1.4372,1.4435,1.4461,1.4501,1.4506,1.4521,1.4529,1.4525,1.4549,1.455,1.4552,1.456,1.4563,1.4531,1.4531,1.4531,1.4531,0,1.4173,1.4199,1.4214,1.4254,1.4275,1.43,1.4328,1.4347,1.4361,1.4381,1.4417,1.4447,1.4483,1.4494,1.4509,1.4537,1.4537,1.4543,1.4544,1.4553,1.4561,1.4564,1.453,1.453,1.453,1.453,0,0,1.4174,1.4226,1.4231,1.4249,1.4289,1.4311,1.4337,1.4371,1.4387,1.4416,1.444,1.4482,1.4487,1.4509,1.4526,1.4543,1.4558,1.4547,1.4548,1.4548,1.4592,1.4587,1.459,1.4566,1.4567,1.4567,1.4589,0,1.4191,1.4238,1.426,1.4298,1.4323,1.4343,1.4366,1.4394,1.4414,1.4439,1.4462,1.4492,1.4497,1.451,1.4527,1.4552,1.4567,1.4551,1.4589,1.4591,1.458,1.4594,1.459,1.4608,1.4592,1.4593,1.4593,0,1.4217,1.4245,1.4285,1.4322,1.4333,1.4354,1.4387,1.4411,1.4443,1.4456,1.448,1.4497,1.4527,1.4526,1.4568,1.4556,1.4573,1.4588,1.459,1.4594,1.4592,1.46,1.4615,1.4618,1.4598,1.4598,1.4597,0,1.4215,1.4262,1.4292,1.4307,1.4351,1.4365,1.4384,1.4415,1.4434,1.4464,1.4477,1.451,1.4528,1.4554,1.4579,1.4576,1.4619,1.462,1.4632,1.4631,1.4641,1.464,1.4659,1.4651,1.4651,1.4651,1.4651,0,1.4232,1.4256,1.4292,1.431,1.4338,1.4363,1.439,1.4411,1.4439,1.4463,1.4482,1.4504,1.4536,1.4563,1.4583,1.4615,1.4623,1.4636,1.4641,1.4634,1.4633,1.4646,1.4645,1.4652,1.4652,1.4651,1.4651,0,1.4234,1.4259,1.4293,1.4331,1.4341,1.436,1.4393,1.4412,1.4433,1.4463,1.4472,1.4505,1.4537,1.4565,1.4608,1.4622,1.4655,1.4661,1.4644,1.4646,1.4657,1.4656,1.4686,1.4691,1.4679,1.4679,1.4679,0,1.4243,1.4261,1.4301,1.4318,1.4336,1.4363,1.4382,1.4409,1.4428,1.4466,1.4481,1.4514,1.4542,1.4593,1.4622,1.4655,1.4662,1.4671,1.4668,1.466,1.4663,1.4662,1.4664,1.4671,1.4671,1.4671,1.4671,0,1.4257,1.4268,1.4295,1.4326,1.4348,1.4374,1.4401,1.4414,1.4445,1.4466,1.4499,1.4521,1.4564,1.4597,1.4633,1.4654,1.4668,1.4671,1.4676,1.4669,1.4659,1.4665,1.4644,1.4671,1.4671,1.4671,1.4671,1.4671,1.4263,1.428,1.4311,1.434,1.4363,1.4387,1.4407,1.443,1.4457,1.4494,1.4508,1.4541,1.4574,1.4623,1.4644,1.4672,1.4674,1.468,1.4682,1.4683,1.4682,1.4654,1.4678,1.4678,1.4678,1.4678,1.4678,0,1.4278,1.4298,1.4325,1.4361,1.4384,1.4394,1.4424,1.4443,1.4472,1.45,1.4527,1.4565,1.4597,1.4628,1.4663,1.4678,1.4686,1.4687,1.4686,1.4691,1.4678,1.4671,1.468,1.468,1.468,1.468,1.468,1.468,1.4289,1.4319,1.4334,1.4376,1.4397,1.4428,1.4445,1.4468,1.4491,1.4531,1.4558,1.4577,1.4607,1.4644,1.4674,1.4683,1.4695,1.4694,1.4704,1.4692,1.4691,1.4691,1.4684,1.4696,1.4696,1.4714,1.4714,1.4714]},{"header":{"parameterUnit":"m.s-1","parameterCategory":1,"la1":30.2991,"la2":30.254,"lo1":-89.0895,"lo2":-89.0444,"dy":0.0017,"dx":0.0017,"nx":28,"ny":28,"refTime":"2025-04-08T09:00:00:Z","depth":0,"parameterNumber":3,"parameterNumberName":"V-component_of_WINDS"},"data":[0,0,0,0,0,0,0,0,0,0,0,0,0,0,0,0,0,0,0,0,0,0,0,0,0,0,0,0,0,0,0,0,0,0,0,0,0,0,0,0,0,0,0,0,0,0,0,0,0,0,0,0,0,0,0,0,0,0,1.7338,1.7338,0,1.7297,1.7297,1.7296,1.7232,1.7231,1.723,1.7229,1.7184,1.7184,1.7184,0,0,0,0,0,0,0,0,0,0,0,0,0,1.7357,1.7357,1.7338,1.7338,1.7337,1.7297,1.7297,1.7296,1.7233,1.7231,1.723,1.7229,1.7184,1.7184,1.7184,0,0,0,0,0,0,0,0,0,0,0,0,0,1.7335,1.7357,1.7338,1.7301,1.7297,1.7297,1.7297,1.7296,1.7233,1.7231,1.7229,1.7228,1.7185,1.7184,1.7184,1.7217,0,0,1.7184,1.7183,0,0,0,0,0,0,0,0,1.7337,1.7335,1.7307,1.7303,1.7299,1.7268,1.7287,1.7269,1.7233,1.7257,1.7229,1.7227,1.7213,1.7211,1.7207,1.7215,1.7213,1.7184,1.7183,1.7183,1.7183,0,0,0,0,0,0,0,1.7338,1.7336,1.7322,1.7307,1.7302,1.7284,1.7279,1.7283,1.7245,1.7255,1.725,1.7246,1.7211,1.7207,1.7205,1.7212,1.7184,1.7183,1.7183,1.7183,1.7239,1.724,0,0,0,0,0,0,1.7346,1.7338,1.7323,1.7321,1.7314,1.7285,1.728,1.728,1.7245,1.7238,1.7248,1.7244,1.7208,1.7206,1.7203,1.7235,1.7183,1.7183,1.7183,1.7237,1.7239,1.7241,0,0,0,0,0,0,1.7346,1.7345,1.7325,1.7328,1.7324,1.7287,1.7287,1.728,1.7276,1.724,1.7232,1.7251,1.7207,1.7204,1.7213,1.7233,1.7183,1.7183,1.7235,1.7238,1.724,1.7302,0,0,0,0,0,0,1.7347,1.7346,1.7359,1.7329,1.7324,1.7337,1.7289,1.728,1.7276,1.727,1.7241,1.7234,1.7205,1.7213,1.7213,1.7232,1.7183,1.7233,1.7236,1.7239,1.7298,1.7306,1.7313,0,0,0,0,0,1.7348,1.7379,1.7361,1.7359,1.7341,1.7338,1.7335,1.7302,1.7278,1.729,1.7266,1.7235,1.7231,1.7215,1.7213,1.7233,1.7232,1.7235,1.7239,1.7294,1.7305,1.7313,0,0,0,0,0,0,1.7414,1.7375,1.7353,1.7376,1.7361,1.7328,1.7342,1.7315,1.7306,1.73,1.7258,1.7252,1.7266,1.725,1.7233,1.726,1.7226,1.723,1.7269,1.7278,1.7286,1.7288,1.7183,0,0,0,0,0,1.7431,1.7434,1.7399,1.7422,1.7415,1.738,1.7378,1.7353,1.7336,1.7329,1.7306,1.7289,1.7283,1.728,1.7273,1.7296,1.7286,1.7308,1.7315,1.7322,1.7325,1.733,1.7338,1.7253,1.7253,1.7252,0,0,1.7466,1.7445,1.745,1.7434,1.742,1.7421,1.7375,1.738,1.7379,1.7329,1.7335,1.7318,1.7295,1.731,1.7315,1.7298,1.7346,1.7327,1.7332,1.7331,1.7335,1.7343,1.735,1.7255,1.7255,1.7254,0,0,1.753,1.7517,1.7532,1.7518,1.7496,1.7471,1.7475,1.7445,1.7431,1.7437,1.7397,1.7395,1.7388,1.7372,1.7363,1.7417,1.7387,1.7416,1.7455,1.7461,1.7468,1.7473,1.7488,1.7495,1.7419,1.7419,1.742,0,1.7577,1.7579,1.7543,1.7549,1.7541,1.7495,1.7508,1.7496,1.7473,1.7468,1.7449,1.7435,1.7417,1.7425,1.7437,1.7433,1.7433,1.7419,1.747,1.7475,1.748,1.7494,1.75,1.7423,1.7422,1.7422,1.7422,0,1.7634,1.7636,1.7651,1.7628,1.7623,1.7633,1.7596,1.7594,1.7569,1.7546,1.7549,1.7526,1.7511,1.7511,1.7488,1.7514,1.7503,1.7478,1.7443,1.7492,1.7504,1.751,1.7428,1.7427,1.7426,1.7425,0,0,1.774,1.7696,1.7701,1.7688,1.7659,1.7658,1.7664,1.765,1.7647,1.7632,1.7633,1.7625,1.76,1.759,1.7563,1.7569,1.7607,1.7542,1.754,1.7551,1.7629,1.7647,1.7654,1.7587,1.7588,1.7589,1.763,0,1.7796,1.7804,1.777,1.7786,1.7784,1.7738,1.7742,1.7723,1.7701,1.7695,1.7669,1.7663,1.7633,1.7625,1.7629,1.7602,1.7622,1.7599,1.7585,1.7585,1.7589,1.7661,1.768,1.772,1.7635,1.7636,1.7636,0,1.7862,1.7849,1.7865,1.783,1.7828,1.7833,1.7814,1.781,1.7785,1.7768,1.7755,1.7724,1.7723,1.7692,1.7688,1.7673,1.7665,1.7651,1.7651,1.7647,1.7612,1.7655,1.7733,1.7738,1.7644,1.7644,1.7643,0,1.7933,1.7919,1.7925,1.7916,1.7877,1.7881,1.7864,1.7839,1.783,1.7814,1.7807,1.7791,1.7782,1.7768,1.7732,1.7713,1.7731,1.7698,1.7714,1.7715,1.7718,1.7718,1.7793,1.7718,1.7718,1.7718,1.7718,0,1.7997,1.8007,1.7955,1.7959,1.7968,1.7928,1.7937,1.7916,1.7892,1.7889,1.7849,1.7846,1.78,1.7791,1.7762,1.7761,1.7758,1.7742,1.7733,1.7744,1.7745,1.7736,1.7731,1.772,1.7719,1.7719,1.7719,0,1.8077,1.8043,1.8046,1.8008,1.7998,1.8006,1.7972,1.7972,1.7946,1.7942,1.7939,1.7898,1.7884,1.7847,1.7825,1.7805,1.7811,1.7798,1.7819,1.7814,1.7831,1.7828,1.79,1.7905,1.7831,1.7832,1.7832,0,1.8119,1.8125,1.8087,1.8082,1.8067,1.806,1.805,1.801,1.8002,1.7972,1.7975,1.7958,1.7943,1.7923,1.789,1.7871,1.7855,1.7881,1.7852,1.7861,1.7851,1.785,1.7848,1.7887,1.7888,1.7889,1.789,0,1.8195,1.8177,1.8166,1.8148,1.8138,1.8122,1.8103,1.8101,1.8055,1.8047,1.8033,1.8021,1.7997,1.7979,1.7955,1.7935,1.7903,1.7899,1.7901,1.7911,1.7921,1.7912,1.7833,1.7898,1.7897,1.7896,1.7896,1.7896,1.8254,1.8256,1.8228,1.8216,1.8198,1.818,1.8177,1.815,1.8138,1.8115,1.8092,1.8079,1.805,1.8013,1.7996,1.7983,1.7967,1.7971,1.7972,1.7973,1.7976,1.7925,1.7979,1.7979,1.7978,1.7978,1.7978,0,1.8325,1.8305,1.8294,1.8268,1.8257,1.823,1.8206,1.8199,1.8188,1.8164,1.8149,1.813,1.8112,1.8077,1.8055,1.8051,1.8036,1.8047,1.8045,1.804,1.7993,1.7992,1.8059,1.8059,1.8059,1.8059,1.8059,1.8059,1.8361,1.8361,1.8339,1.8328,1.8307,1.8294,1.8283,1.8265,1.8245,1.8227,1.8211,1.8188,1.8158,1.8133,1.8114,1.8104,1.8096,1.8111,1.8095,1.8052,1.8044,1.8037,1.8035,1.811,1.811,1.8143,1.8143,1.8143]}]]